Houston, TX

4:45 PM CST on February 19, 2017 (GMT -0600)
Hobby

Weather History for KHOU - March, 2013

Change the Weather History Date:

Sunday, March 3, 2013

  Actual Average Record
Temperature  
Mean Temperature 50 °F 60 °F  
Max Temperature 69 °F 70 °F 86 °F (1893)
Min Temperature 31 °F 50 °F 21 °F (1943)
Degree Days  
Heating Degree Days 15 7  
Month to date heating degree days 47 21  
Since 1 July heating degree days 977 1209  
Cooling Degree Days 0 2  
Month to date cooling degree days 0 4  
Year to date cooling degree days 40 42  
Growing Degree Days 2 (Base 50)    
Moisture  
Dew Point 34 °F    
Average Humidity 55    
Maximum Humidity 85    
Minimum Humidity 24    
Precipitation  
Precipitation 0.00 in 0.11 in 1.03 in (1957)
Month to date precipitation 0.00 0.34  
Year to date precipitation 4.53 6.92  
Sea Level Pressure  
Sea Level Pressure 30.20 in    
Wind  
Wind Speed 4 mph (SSE)    
Max Wind Speed 20 mph    
Max Gust Speed 26 mph    
Visibility 10 miles    
Events      
T = Trace of Precipitation, MM = Missing Value Source: NWS Daily Summary

Daily Weather History Graph

Daily Weather History Graph

Search for Another Location

Airport or City:

Trip Planner

Search our weather history database for the weather conditions in past years. The results will help you decide how hot, cold, wet, or windy it might be!

Date:

Astronomy

Mar. 03, 2013 Rise Set
Actual Time 6:44 AM CST 6:21 PM CST
Civil Twilight 6:20 AM CST 6:45 PM CST
Nautical Twilight 5:52 AM CST 7:13 PM CST
Astronomical Twilight 5:25 AM CST 7:41 PM CST
Moon No Moon Rise 10:29 AM CST (3/3)
Length of Visible Light 12h 25m
Length of Day
11h 37m
Waning Gibbous, 63% of the Moon is Illuminated
Mar 3
Waning Gibbous
Mar 4
Last Quarter
Mar 11
New
Mar 19
First Quarter
Mar 27
Full

Hourly Weather History & Observations

Time (CST) Temp. Dew Point Humidity Pressure Visibility Wind Dir Wind Speed Gust Speed Precip Events Conditions
12:53 AM 39.9 °F 24.1 °F 53% 30.30 in 10.0 mi Calm Calm - N/A   Clear
1:53 AM 39.0 °F 25.0 °F 57% 30.30 in 10.0 mi Calm Calm - N/A   Clear
2:53 AM 39.0 °F 27.0 °F 62% 30.28 in 10.0 mi Calm Calm - N/A   Clear
3:53 AM 37.9 °F 27.0 °F 65% 30.27 in 10.0 mi Calm Calm - N/A   Clear
4:53 AM 37.9 °F 26.1 °F 62% 30.27 in 10.0 mi Calm Calm - N/A   Clear
5:53 AM 37.4 °F 28.4 °F 70% 30.27 in 10.0 mi Calm Calm - N/A   Clear
6:53 AM 37.0 °F 28.0 °F 70% 30.29 in 10.0 mi Calm Calm - N/A   Partly Cloudy
7:53 AM 42.1 °F 28.9 °F 60% 30.31 in 10.0 mi Calm Calm - N/A   Scattered Clouds
8:53 AM 50.0 °F 30.9 °F 48% 30.31 in 10.0 mi SE 5.8 mph - N/A   Partly Cloudy
9:53 AM 55.0 °F 26.1 °F 33% 30.31 in 10.0 mi SSE 6.9 mph - N/A   Clear
10:53 AM 57.9 °F 28.9 °F 33% 30.29 in 10.0 mi South 8.1 mph - N/A   Clear
11:53 AM 62.1 °F 30.0 °F 30% 30.26 in 10.0 mi SSE 6.9 mph - N/A   Clear
12:53 PM 64.9 °F 32.0 °F 29% 30.21 in 10.0 mi South 10.4 mph - N/A   Clear
1:53 PM 66.9 °F 35.1 °F 31% 30.17 in 10.0 mi South 8.1 mph - N/A   Partly Cloudy
2:53 PM 66.0 °F 37.9 °F 36% 30.14 in 10.0 mi South 9.2 mph - N/A   Partly Cloudy
3:53 PM 66.2 °F 39.2 °F 37% 30.12 in 10.0 mi SSE 15.0 mph 23.0 mph N/A   Partly Cloudy
4:53 PM 64.4 °F 39.2 °F 40% 30.10 in 10.0 mi SSE 9.2 mph - N/A   Scattered Clouds
5:53 PM 62.1 °F 39.9 °F 44% 30.10 in 10.0 mi South 13.8 mph - N/A   Scattered Clouds
6:53 PM 59.0 °F 41.0 °F 51% 30.10 in 10.0 mi South 11.5 mph - N/A   Scattered Clouds
7:53 PM 55.9 °F 43.0 °F 62% 30.09 in 10.0 mi SSE 8.1 mph - N/A   Partly Cloudy
8:53 PM 54.0 °F 45.0 °F 72% 30.09 in 10.0 mi SSE 9.2 mph - N/A   Partly Cloudy
9:53 PM 55.0 °F 46.0 °F 72% 30.08 in 10.0 mi SSE 9.2 mph - N/A   Partly Cloudy
10:53 PM 55.9 °F 48.0 °F 75% 30.05 in 10.0 mi South 9.2 mph - N/A   Partly Cloudy
11:53 PM 57.0 °F 50.0 °F 77% 30.04 in 10.0 mi South 10.4 mph - N/A   Partly Cloudy